Find Starlink 3135

NORAD ID: 49424 Int'l Des: 2021-104 Owner: SPXS Country: US Constellation: starlink operational
LEOCIRCULAR

現在のビュー

3D地球を読み込み中...

About Starlink 3135

Starlink 3135 (NORAD 49424) is a starlink constellation satellite (v1.5) launched Nov 13, 2021 by SPXS of US. It operates in LEO, CIRCULAR orbit with a mass of 290.00 kg.

Starlink 3135について

説明を読み込み中...

次回通過

Passes for default location (London). Set your location on the main map for personalized predictions.

高度履歴

Loading altitude history...

軌道要素

1 49424U 21104S 26170.16965823 -.00000239 00000-0 30745-5 0 9996
2 49424 53.1616 133.4550 0001323 73.5274 286.5863 15.08832732253945
Epoch: Jun 19, 2026 • Age: 15 hours

現在のステータス

高度 557.7 km
速度 7.58 km/s
衛星直下点 -49.28°S, 170.18°E
打ち上げ日 Nov 13, 2021
運用期間 4.5 years
タイプ internet

技術仕様

分類 Payload
質量 290.00 kg
乾燥質量 270.00 kg
総質量 290.00 kg
長さ 0.20 m
直径 2.80 m
スパン 9.00 m
形状 Box + pan
製造者 SPXS
バスタイプ Starlink
フェーズステータス In Orbit
所有者/国 SPXS/US

Most Searched